This demonstration page uses our WeatherBlox Daily Observations layout. Learn more.

Hourly Observations for December 30, 2017

Temp ( °F °C ) Dew Point ( °F °C ) Humidity (%) Winds ( mph kmh ) Pressure ( in mb ) Visibility ( mi km ) Precip ( " mm )
12:15 am 00:15 Clear 4 -15.4 0 -17.6 83 83 N 9 15 30.65 1038 10 16.09344 0 0
12:35 am 00:35 Clear 4 -15.5 0 -17.7 83 83 N 12 19 30.65 1038 10 16.09344 0 0
12:55 am 00:55 Clear 4 -15.7 0 -17.9 83 83 N 9 15 30.65 1038 10 16.09344 0 0
1:15 am 01:15 Clear 3 -16 -1 -18.1 84 84 NNW 7 11 30.68 1039 10 16.09344 0 0
1:35 am 01:35 Clear 3 -16.3 -1 -18.5 83 83 NNW 7 11 30.68 1039 10 16.09344 0 0
1:55 am 01:55 Clear 2 -16.5 -1 -18.5 85 85 NNW 7 11 30.68 1039 10 16.09344 0 0
2:15 am 02:15 Clear 2 -16.5 -1 -18.6 84 84 N 7 11 30.68 1039 10 16.09344 0 0
2:35 am 02:35 Clear 2 -16.5 -1 -18.6 84 84 N 10 17 30.68 1039 10 16.09344 0 0
2:55 am 02:55 Clear 2 -16.5 -1 -18.6 84 84 N 9 15 30.68 1039 10 16.09344 0 0
3:15 am 03:15 Clear 2 -16.5 -2 -18.7 83 83 N 8 13 30.68 1039 10 16.09344 0 0
3:35 am 03:35 Clear 3 -16.3 -1 -18.5 83 83 N 10 17 30.68 1039 10 16.09344 0 0
3:55 am 03:55 Clear 2 -16.5 -2 -18.7 83 83 N 9 15 30.68 1039 10 16.09344 0 0
4:15 am 04:15 Clear 2 -16.6 -2 -18.7 84 84 N 8 13 30.68 1039 10 16.09344 0 0
4:35 am 04:35 Clear 2 -16.9 -2 -19 84 84 N 9 15 30.65 1038 10 16.09344 0 0
4:55 am 04:55 Clear 1 -17.2 -3 -19.2 85 85 N 9 15 30.71 1040 10 16.09344 0 0
5:15 am 05:15 Clear 1 -17.5 -3 -19.5 85 85 N 9 15 30.68 1039 10 16.09344 0 0
5:35 am 05:35 Mostly Cloudy 1 -17.4 -3 -19.5 84 84 N 8 13 30.71 1040 10 16.09344 0 0
5:55 am 05:55 Cloudy 2 -16.8 -2 -19 83 83 N 12 19 30.74 1041 10 16.09344 0 0
6:15 am 06:15 Cloudy 3 -16 -1 -18.3 83 83 NNE 14 22 30.68 1039 10 16.09344 0 0
6:35 am 06:35 Cloudy 3 -16 -1 -18.5 81 81 NNE 15 24 30.68 1039 10 16.09344 0 0
6:55 am 06:55 Cloudy 3 -16 -1 -18.5 81 81 NNE 15 24 30.68 1039 10 16.09344 0 0
7:15 am 07:15 Cloudy 3 -16.1 -1 -18.5 82 82 NNE 14 22 30.71 1040 10 16.09344 0 0
7:35 am 07:35 Cloudy 3 -16.2 -2 -19 79 79 NNE 13 20 30.71 1040 10 16.09344 0 0
7:55 am 07:55 Cloudy 3 -16.3 -3 -19.4 77 77 NNE 13 20 30.71 1040 10 16.09344 0 0
8:15 am 08:15 Cloudy 3 -16.3 -3 -19.3 78 78 NNE 14 22 30.71 1040 10 16.09344 0 0
8:35 am 08:35 Cloudy 3 -16.3 -2 -19.1 79 79 NNE 10 17 30.71 1040 10 16.09344 0 0
8:55 am 08:55 Cloudy 3 -16.3 -3 -19.2 79 79 NE 9 15 30.71 1040 10 16.09344 0 0
9:15 am 09:15 Cloudy 3 -16.3 -3 -19.2 79 79 NE 9 15 30.68 1039 10 16.09344 0 0
9:35 am 09:35 Cloudy 3 -16 -2 -19 78 78 NE 9 15 30.71 1040 10 16.09344 0 0
9:55 am 09:55 Cloudy 3 -16 -2 -19 78 78 NE 10 17 30.71 1040 10 16.09344 0 0
10:15 am 10:15 Cloudy 3 -16 -2 -19 78 78 NE 8 13 30.71 1040 10 16.09344 0 0
10:35 am 10:35 Cloudy 3 -15.9 -2 -19 77 77 ENE 8 13 30.71 1040 10 16.09344 0 0
10:55 am 10:55 Cloudy 4 -15.7 -2 -18.8 77 77 E 6 9 30.71 1040 10 16.09344 0 0
11:15 am 11:15 Cloudy 4 -15.5 -1 -18.6 77 77 NE 8 13 30.71 1040 10 16.09344 0 0
11:35 am 11:35 Cloudy 4 -15.5 -2 -19 75 75 NE 7 11 30.68 1039 10 16.09344 0 0
11:55 am 11:55 Cloudy 4 -15.5 -2 -18.7 77 77 E 7 11 30.65 1038 10 16.09344 0 0
12:15 pm 12:15 Cloudy 4 -15.6 -2 -19 75 75 E 3 6 30.65 1038 10 16.09344 0 0
12:35 pm 12:35 Cloudy 4 -15.5 -2 -18.8 76 76 ENE 3 6 30.65 1038 10 16.09344 0 0
12:55 pm 12:55 Cloudy 4 -15.5 -2 -18.9 75 75 E 7 11 30.62 1037 10 16.09344 0 0
1:15 pm 13:15 Cloudy 4 -15.5 -2 -18.8 76 76 E 3 6 30.62 1037 10 16.09344 0 0
1:35 pm 13:35 Cloudy 4 -15.5 -2 -19 75 75 NE 7 11 30.62 1037 10 16.09344 0 0
1:55 pm 13:55 Cloudy 5 -15.2 -2 -18.7 75 75 ESE 3 6 30.59 1036 10 16.09344 0 0
2:15 pm 14:15 Cloudy 5 -15.1 -1 -18.3 77 77 ESE 7 11 30.59 1036 7 11.265408 0 0
2:35 pm 14:35 Cloudy 5 -14.8 0 -18 77 77 SE 8 13 30.53 1034 10 16.09344 0 0
2:55 pm 14:55 Cloudy 5 -15 -1 -18.5 75 75 ESE 5 7 30.53 1034 10 16.09344 0 0
3:15 pm 15:15 Cloudy 5 -15 -1 -18.4 76 76 ESE 6 9 30.53 1034 10 16.09344 0 0
3:35 pm 15:35 Cloudy 5 -15 -1 -18.2 77 77 ESE 8 13 30.5 1033 10 16.09344 0 0
3:55 pm 15:55 Cloudy 4 -15.3 -1 -18.5 77 77 ESE 9 15 30.5 1033 10 16.09344 0 0
4:15 pm 16:15 Cloudy 4 -15.3 -1 -18.4 77 77 ESE 10 17 30.5 1033 10 16.09344 0 0
4:35 pm 16:35 Cloudy 4 -15.5 -1 -18.5 78 78 ESE 12 19 30.5 1033 7 11.265408 0 0
4:55 pm 16:55 Cloudy 4 -15.8 -2 -19 77 77 ESE 10 17 30.48 1032 10 16.09344 0 0
5:15 pm 17:15 Cloudy 4 -15.8 -1 -18.6 79 79 E 12 19 30.53 1034 7 11.265408 0 0
5:35 pm 17:35 Cloudy 3 -16 -2 -19 78 78 ESE 12 19 30.5 1033 10 16.09344 0 0
5:55 pm 17:55 Cloudy 3 -16.1 -2 -19 79 79 E 13 20 30.5 1033 10 16.09344 0 0
6:15 pm 18:15 Cloudy 3 -16 -2 -18.9 79 79 E 13 20 30.53 1034 10 16.09344 0 0
6:35 pm 18:35 Cloudy 3 -16.2 -2 -19 79 79 E 13 20 30.53 1034 10 16.09344 0 0
6:55 pm 18:55 Cloudy 3 -16.3 -2 -19 80 80 E 9 15 30.56 1035 10 16.09344 0 0
7:15 pm 19:15 Cloudy 3 -16.3 -2 -19 80 80 ENE 14 22 30.56 1035 10 16.09344 0 0
7:35 pm 19:35 Cloudy 2 -16.5 -2 -19 81 81 ENE 13 20 30.59 1036 10 16.09344 0 0
7:55 pm 19:55 Cloudy 2 -16.6 -3 -19.5 78 78 ENE 12 19 30.59 1036 10 16.09344 0 0
8:15 pm 20:15 Cloudy 2 -16.5 -3 -19.2 80 80 NE 10 17 30.62 1037 10 16.09344 0 0
8:35 pm 20:35 Cloudy 2 -16.7 -2 -19.1 82 82 NE 13 20 30.62 1037 10 16.09344 0 0
8:55 pm 20:55 Cloudy 2 -16.8 -3 -19.4 80 80 ENE 12 19 30.65 1038 10 16.09344 0 0
9:15 pm 21:15 Cloudy 1 -17 -3 -19.6 80 80 ENE 15 24 30.65 1038 10 16.09344 0 0
9:35 pm 21:35 Cloudy 1 -17 -3 -19.5 81 81 ENE 10 17 30.65 1038 10 16.09344 0 0
9:55 pm 21:55 Cloudy 1 -17.2 -3 -19.5 82 82 NE 14 22 30.65 1038 10 16.09344 0 0
10:15 pm 22:15 Mostly Cloudy 1 -17.5 -4 -20 81 81 ENE 12 19 30.68 1039 10 16.09344 0 0
10:35 pm 22:35 Mostly Cloudy 0 -17.6 -4 -20 82 82 ENE 12 19 30.68 1039 10 16.09344 0 0
10:55 pm 22:55 Cloudy 0 -17.6 -4 -20 82 82 ENE 12 19 30.71 1040 10 16.09344 0 0
11:15 pm 23:15 Cloudy 0 -17.6 -4 -20.1 81 81 NE 12 19 30.74 1041 10 16.09344 0 0
11:35 pm 23:35 Cloudy 0 -17.6 -4 -20 82 82 ENE 8 13 30.71 1040 10 16.09344 0 0
11:55 pm 23:55 Cloudy 0 -17.8 -5 -20.5 80 80 ENE 8 13 30.71 1040 10 16.09344 0 0

Powered by AerisWeather